Tracking 18852 objects as of 24-Nov-2017
HD Live streaming from Space Station
objects crossing your sky now

FENGYUN 1C DEB

Track FENGYUN 1C DEB now!
10-day predictions


NORAD ID: 31750
Int'l Code: 1999-025CEZ
Perigee: 664.9 km
Apogee: 821.3 km
Inclination: 98.7 °
Period: 99.5 minutes
Semi major axis: 7114 km
RCS: 0.0094 m2 (small)
Launch date: May 10, 1999
Source: People's Republic of China (PRC)
Launch site: Taiyaun Space Center, China (TSC)

Note: This is SATELLITE DEBRIS
aabbcc
Your satellite tracking list
Your tracking list is empty




NASA's NSSDC Master Catalog

Two Line Element Set (TLE):
1 31750U 99025CEZ 17327.55739556 +.00001303 +00000-0 +34646-3 0  9999
2 31750 098.7437 091.8365 0109913 086.7769 274.5991 14.46837626045300
Source of the keplerian elements: AFSPC